User: anonymous   Login
Location: Hurecourt
(47.9030°N, 6.0653°E)
Time: 17:39:24
(UTC+00:00)
Language:

Cosmos 1782 Rocket - Orbit

View from above orbital plane
View from above orbital plane
View from above satellite
View from above satellite

Ground track
Ground track

The orbit data is extracted from the following two-line orbital elements,

1 16987U 86074B   20271.50893365  .00000101  00000-0  94659-5 0  9997
2 16987  82.5133 268.0773 0016619 273.0497 249.7641 14.83079535836075
Epoch (UTC): 27 September 2020 12:12:51
Eccentricity: 0.0016619
inclination: 82.5133°
perigee height: 608 km
apogee height: 631 km
right ascension of ascending node: 268.0773°
argument of perigee: 273.0497°
revolutions per day: 14.83079535
mean anomaly at epoch: 249.7641°
orbit number at epoch: 83607

The dashed part of the orbit path shows where the satellite is in the earth's shadow,  

DLR